QPF
0.00 0.00 0.00 0.00 0.00 0.00 0.00 0.00 0.00 0.00 0.00 0.00 0.00 0.00 0.00 0.00 0.00 0.00 0.00 0.00 0.00 0.00 0.00 0.00 0.00 0.00 0.00 0.00 0.00 0.00 0.00 0.00 0.00 0.00 0.00 0.00 0.00 0.00 0.00 0.00 0.00 0.00 0.00
0.00 0.00 0.00 0.00 0.00 0.00 0.00 0.00 0.00 0.00 0.00 0.00 0.00 0.00 0.00 0.00 0.00 0.00 0.00 0.00 0.00 0.00 0.00 0.00 0.00 0.00 0.00 0.00 0.00 0.00 0.00 0.00 0.00 0.00 0.00 0.00 0.00 0.00 0.00 0.00 0.00 0.00 0.00
0.00 0.00 0.00 0.00 0.00 0.00 0.00 0.00 0.00 0.00 0.00 0.00 0.00 0.00 0.00 0.00 0.00 0.00 0.00 0.00 0.00 0.00 0.00 0.00 0.00 0.00 0.00 0.00 0.00 0.00 0.00 0.00 0.00 0.00 0.00 0.00 0.00 0.00 0.00 0.00 0.00 0.00 0.00
0.00 0.00 0.00 0.00 0.00 0.00 0.00 0.00 0.00 0.00 0.00 0.00 0.00 0.00 0.00 0.00 0.00 0.00 0.00 0.00 0.00 0.00 0.00 0.00 0.00 0.00 0.00 0.00 0.00 0.00 0.00 0.00 0.00 0.00 0.00 0.00 0.00 0.00 0.00 0.00 0.00 0.00 0.00
0.00 0.00 0.00 0.00 0.00 0.00 0.00 0.00 0.00 0.00 0.00 0.00 0.00 0.00 0.00 0.00 0.00 0.00 0.00 0.00 0.00 0.00 0.00 0.00 0.00 0.00 0.00 0.00 0.00 0.00 0.00 0.00 0.00 0.00 0.00 0.00 0.00 0.00 0.00 0.00 0.00 0.00 0.00
0.00 0.00 0.00 0.00 0.00 0.00 0.00 0.00 0.00 0.00 0.00 0.00 0.00 0.00 0.00 0.00 0.00 0.00 0.00 0.00 0.00 0.00 0.00 0.00 0.00 0.00 0.00 0.00 0.00 0.00 0.00 0.00 0.00 0.00 0.00 0.00 0.00 0.00 0.00 0.00 0.00 0.00 0.00
0.00 0.00 0.00 0.00 0.00 0.00 0.00 0.00 0.00 0.00 0.00 0.00 0.00 0.00 0.00 0.00 0.00 0.00 0.00 0.00 0.00 0.00 0.00 0.00 0.00 0.00 0.00 0.00 0.00 0.00 0.00 0.00 0.00 0.00 0.00 0.00 0.00 0.00 0.00 0.00 0.00 0.00 0.00
0.00 0.00 0.00 0.00 0.00 0.00 0.00 0.00 0.00 0.00 0.00 0.00 0.00 0.00 0.00 0.00 0.00 0.00 0.00 0.00 0.00 0.00 0.00 0.00 0.00 0.00 0.00 0.00 0.00 0.00 0.00 0.00 0.00 0.00 0.00 0.00 0.00 0.00 0.00 0.00 0.00 0.00 0.00
0.00 0.00 0.00 0.00 0.00 0.00 0.00 0.00 0.00 0.00 0.00 0.00 0.00 0.00 0.00 0.00 0.00 0.00 0.00 0.00 0.00 0.00 0.00 0.00 0.00 0.00 0.00 0.00 0.00 0.00 0.00 0.00 0.00 0.00 0.00 0.00 0.00 0.00 0.00 0.00 0.00 0.00 0.00
0.00 0.00 0.00 0.00 0.00 0.00 0.00 0.00 0.00 0.00 0.00 0.00 0.00 0.00 0.00 0.00 0.00 0.00 0.00 0.00 0.00 0.00 0.00 0.00 0.00 0.00 0.00 0.00 0.00 0.00 0.00 0.00 0.00 0.00 0.00 0.00 0.00 0.00 0.00 0.00 0.00 0.00 0.00
0.00 0.00 0.00 0.00 0.00 0.00 0.00 0.00 0.00 0.00 0.00 0.00 0.00 0.00 0.00 0.00 0.00 0.00 0.00 0.00 0.00 0.00 0.00 0.00 0.00 0.00 0.00 0.00 0.00 0.00 0.00 0.00 0.00 0.00 0.00 0.00 0.00 0.00 0.00 0.00 0.00 0.00 0.00
0.00 0.00 0.00 0.00 0.00 0.00 0.00 0.00 0.00 0.00 0.00 0.00 0.00 0.00 0.00 0.00 0.00 0.00 0.00 0.00 0.00 0.00 0.00 0.00 0.00 0.00 0.01 0.00 0.00 0.00 0.00 0.00 0.00 0.00 0.00 0.00 0.00 0.00 0.00 0.00 0.00 0.00 0.00
0.00 0.00 0.00 0.00 0.00 0.00 0.00 0.00 0.00 0.00 0.00 0.00 0.00 0.00 0.00 0.00 0.00 0.00 0.01 0.00 0.00 0.00 0.00 0.00 0.00 0.01 0.01 0.00 0.00 0.00 0.00 0.00 0.00 0.00 0.00 0.00 0.00 0.00 0.00 0.00 0.00 0.00 0.00
0.00 0.00 0.00 0.00 0.00 0.00 0.00 0.00 0.00 0.00 0.00 0.00 0.00 0.00 0.00 0.00 0.00 0.00 0.00 0.00 0.00 0.00 0.00 0.00 0.00 0.00 0.00 0.00 0.00 0.00 0.00 0.00 0.00 0.00 0.00 0.00 0.00 0.00 0.00 0.00 0.00 0.00 0.00
0.00 0.00 0.00 0.00 0.00 0.00 0.00 0.00 0.00 0.00 0.00 0.00 0.00 0.00 0.00 0.00 0.00 0.00 0.00 0.00 0.00 0.00 0.00 0.00 0.00 0.00 0.00 0.00 0.00 0.00 0.00 0.00 0.00 0.00 0.00 0.00 0.00 0.00 0.00 0.00 0.00 0.00 0.00
0.00 0.00 0.00 0.00 0.00 0.00 0.00 0.00 0.00 0.00 0.00 0.00 0.00 0.00 0.00 0.00 0.00 0.00 0.00 0.01 0.00 0.00 0.00 0.00 0.00 0.00 0.00 0.00 0.00 0.00 0.00 0.00 0.00 0.00 0.00 0.00 0.00 0.00 0.00 0.00 0.00 0.00 0.00
0.00 0.00 0.00 0.00 0.00 0.00 0.00 0.00 0.00 0.00 0.00 0.00 0.00 0.00 0.00 0.00 0.00 0.00 0.00 0.01 0.01 0.01 0.00 0.00 0.00 0.00 0.00 0.00 0.00 0.00 0.00 0.00 0.00 0.00 0.00 0.00 0.00 0.00 0.00 0.00 0.00 0.00 0.00
0.00 0.00 0.00 0.00 0.00 0.00 0.00 0.00 0.00 0.00 0.00 0.00 0.00 0.00 0.00 0.00 0.00 0.00 0.00 0.00 0.00 0.00 0.00 0.00 0.00 0.00 0.00 0.00 0.00 0.00 0.00 0.00 0.00 0.00 0.00 0.00 0.00 0.00 0.00 0.00 0.00 0.00 0.00
0.00 0.00 0.00 0.00 0.00 0.00 0.00 0.00 0.00 0.00 0.00 0.00 0.00 0.00 0.00 0.00 0.00 0.00 0.00 0.00 0.00 0.00 0.00 0.00 0.00 0.00 0.00 0.00 0.00 0.00 0.00 0.00 0.00 0.00 0.00 0.00 0.00 0.00 0.00 0.00 0.00 0.00 0.00
0.00 0.00 0.00 0.00 0.00 0.00 0.00 0.00 0.00 0.00 0.00 0.00 0.00 0.00 0.00 0.00 0.00 0.00 0.00 0.00 0.00 0.00 0.00 0.00 0.00 0.00 0.00 0.00 0.00 0.00 0.00 0.00 0.00 0.00 0.00 0.00 0.00 0.00 0.00 0.00 0.00 0.00 0.00
0.00 0.00 0.00 0.00 0.00 0.00 0.00 0.00 0.00 0.00 0.00 0.00 0.00 0.00 0.00 0.00 0.00 0.00 0.00 0.00 0.00 0.00 0.00 0.00 0.00 0.00 0.00 0.00 0.00 0.00 0.00 0.00 0.00 0.00 0.00 0.00 0.00 0.00 0.00 0.00 0.00 0.00 0.00
0.00 0.00 0.00 0.00 0.00 0.00 0.00 0.00 0.00 0.00 0.00 0.00 0.00 0.00 0.00 0.00 0.00 0.00 0.00 0.00 0.00 0.00 0.00 0.00 0.00 0.00 0.00 0.00 0.00 0.00 0.00 0.00 0.00 0.00 0.00 0.00 0.00 0.00 0.00 0.00 0.00 0.00 0.00
0.00 0.00 0.00 0.00 0.00 0.00 0.00 0.00 0.00 0.00 0.00 0.00 0.00 0.00 0.00 0.00 0.00 0.00 0.00 0.00 0.00 0.00 0.00 0.00 0.00 0.00 0.00 0.00 0.00 0.00 0.00 0.00 0.00 0.00 0.00 0.00 0.00 0.00 0.00 0.00 0.00 0.00 0.00
0.00 0.00 0.00 0.00 0.00 0.00 0.00 0.00 0.00 0.00 0.00 0.00 0.00 0.00 0.00 0.00 0.00 0.00 0.00 0.00 0.00 0.00 0.00 0.00 0.00 0.00 0.00 0.00 0.00 0.00 0.00 0.00 0.00 0.00 0.00 0.00 0.00 0.00 0.00 0.00 0.00 0.00 0.00
0.00 0.00 0.00 0.00 0.00 0.00 0.00 0.00 0.00 0.00 0.00 0.00 0.00 0.00 0.00 0.00 0.00 0.00 0.00 0.00 0.00 0.00 0.00 0.00 0.00 0.00 0.00 0.00 0.00 0.00 0.00 0.00 0.00 0.00 0.00 0.00 0.00 0.00 0.00 0.00 0.00 0.00 0.00
0.00 0.00 0.00 0.00 0.00 0.00 0.00 0.00 0.00 0.00 0.00 0.00 0.00 0.00 0.00 0.00 0.00 0.00 0.00 0.00 0.00 0.00 0.00 0.00 0.00 0.00 0.00 0.00 0.00 0.00 0.00 0.00 0.00 0.00 0.00 0.00 0.00 0.00 0.00 0.00 0.00 0.00 0.00
MSLP
1013.58 1013.64 1013.80 1013.76 1013.86 1014.09 1014.28 1014.47 1014.81 1015.26 1015.62 1016.03 1016.29 1016.68 1017.05 1017.29 1017.33 1017.70 1018.00 1018.23 1018.68 1019.04 1019.24 1019.79 1020.12 1020.91 1021.07 1021.93 1022.43 1023.08 1023.83 1024.65 1025.56 1026.51 1026.23 1027.04 1027.45 1027.90 1028.56 1029.07 1029.44 1029.78 1030.18
1013.13 1013.21 1013.23 1013.32 1013.55 1013.72 1013.71 1013.75 1014.12 1014.48 1014.83 1015.11 1015.58 1015.93 1016.21 1016.58 1016.77 1016.85 1017.10 1017.42 1017.81 1018.24 1018.56 1019.07 1019.27 1020.00 1020.54 1021.00 1021.95 1022.36 1023.12 1024.08 1025.00 1025.69 1026.33 1026.81 1027.18 1027.59 1028.06 1028.77 1029.21 1029.54 1029.81
1012.86 1013.01 1013.01 1012.92 1013.01 1012.97 1013.07 1013.12 1013.53 1013.94 1014.22 1014.91 1015.28 1015.57 1015.62 1015.83 1016.09 1016.20 1016.33 1016.72 1017.11 1017.51 1018.02 1018.33 1018.77 1019.28 1019.94 1020.43 1021.05 1022.08 1022.85 1023.35 1024.08 1024.68 1025.81 1026.28 1026.82 1027.33 1027.98 1028.38 1028.69 1029.25 1029.20
1012.47 1012.57 1012.52 1012.33 1012.23 1012.30 1012.71 1012.78 1013.01 1013.53 1013.84 1014.29 1014.81 1015.16 1015.32 1015.48 1015.74 1015.87 1015.99 1016.26 1016.68 1017.10 1017.53 1018.04 1018.61 1018.99 1019.52 1020.28 1021.13 1021.78 1022.32 1023.41 1024.27 1024.58 1025.18 1025.88 1026.47 1027.18 1027.65 1028.06 1028.59 1028.54 1028.67
1012.30 1012.39 1012.12 1011.88 1012.05 1012.28 1012.52 1012.42 1012.61 1013.02 1013.39 1013.87 1014.32 1014.65 1014.96 1015.30 1015.58 1015.80 1015.94 1015.98 1016.33 1016.90 1017.32 1017.72 1018.19 1018.90 1019.60 1020.17 1020.70 1021.53 1022.49 1023.40 1023.75 1024.23 1025.09 1025.75 1026.29 1026.66 1026.87 1027.39 1027.78 1028.07 1028.37
1012.00 1011.95 1011.77 1011.78 1011.83 1011.91 1011.91 1012.06 1012.36 1012.74 1013.23 1013.67 1014.19 1014.53 1014.77 1014.80 1014.93 1015.19 1015.49 1015.78 1016.04 1016.45 1016.89 1017.49 1018.02 1018.66 1019.31 1019.85 1020.78 1021.25 1021.44 1022.11 1022.97 1023.78 1024.66 1025.05 1025.56 1025.96 1026.25 1026.72 1027.30 1027.80 1027.97
1012.19 1011.82 1011.66 1011.66 1011.63 1011.66 1011.73 1011.89 1012.05 1012.43 1012.88 1013.37 1013.70 1014.07 1014.36 1014.56 1014.62 1014.88 1015.32 1015.58 1015.87 1016.18 1016.68 1017.32 1017.99 1018.48 1019.20 1020.00 1020.92 1021.32 1021.55 1021.77 1021.92 1022.71 1023.75 1024.30 1024.85 1025.13 1025.67 1026.28 1026.84 1027.02 1027.12
1012.30 1011.96 1011.62 1011.49 1011.29 1011.31 1011.70 1011.99 1012.28 1012.51 1012.73 1013.04 1013.36 1013.64 1013.98 1014.11 1014.30 1014.62 1014.97 1015.41 1015.64 1015.88 1016.38 1016.91 1017.60 1018.32 1019.02 1019.90 1020.71 1021.25 1021.59 1021.96 1022.21 1022.84 1023.38 1024.16 1024.36 1024.62 1024.97 1025.69 1026.28 1026.65 1026.86
1012.31 1012.00 1011.88 1011.75 1011.49 1011.42 1011.42 1011.53 1011.83 1012.27 1012.76 1013.11 1013.20 1013.43 1013.61 1013.81 1014.01 1014.26 1014.88 1015.26 1015.49 1015.94 1016.40 1016.96 1017.52 1018.16 1018.91 1019.61 1020.34 1020.93 1021.59 1022.21 1022.50 1022.68 1023.41 1023.85 1023.90 1024.40 1024.90 1025.71 1026.20 1026.66 1027.02
1013.12 1012.54 1011.97 1011.69 1011.79 1011.67 1011.43 1011.74 1012.09 1012.06 1011.90 1012.38 1012.93 1013.27 1013.52 1013.65 1013.93 1014.18 1014.46 1015.08 1015.55 1016.07 1016.49 1016.98 1017.36 1017.93 1018.57 1019.16 1019.99 1020.58 1021.44 1021.76 1022.09 1022.60 1023.13 1023.20 1023.73 1024.00 1024.23 1024.84 1025.44 1026.06 1026.64
1013.60 1012.80 1012.25 1012.02 1012.26 1012.07 1011.64 1011.70 1011.81 1012.12 1012.23 1012.33 1012.86 1013.00 1013.09 1013.26 1013.46 1014.01 1014.24 1015.07 1015.48 1016.11 1016.66 1017.35 1017.55 1018.08 1018.37 1019.09 1019.89 1020.29 1020.89 1021.18 1021.73 1022.39 1022.91 1023.21 1023.68 1024.08 1024.26 1024.45 1024.90 1025.27 1025.94
1013.75 1013.48 1012.75 1012.48 1012.29 1012.28 1012.00 1011.45 1011.71 1012.35 1012.45 1012.78 1012.82 1013.15 1013.52 1013.44 1013.43 1013.67 1013.99 1014.65 1015.49 1015.99 1016.37 1016.85 1017.53 1018.13 1018.57 1019.15 1019.55 1020.27 1020.31 1021.18 1021.89 1022.11 1022.55 1022.88 1023.26 1023.60 1023.79 1024.25 1024.74 1025.07 1025.32
1013.83 1013.44 1013.32 1013.22 1012.84 1012.47 1012.64 1012.02 1011.95 1012.40 1012.27 1012.76 1013.42 1013.48 1013.76 1013.72 1013.73 1013.85 1014.26 1015.06 1015.50 1015.82 1016.26 1016.54 1017.23 1017.86 1018.54 1019.04 1019.64 1019.59 1020.38 1020.88 1021.32 1021.99 1022.15 1022.26 1022.61 1023.05 1023.54 1024.29 1024.99 1025.45 1025.68
1014.14 1013.37 1013.28 1013.24 1013.79 1013.48 1013.12 1012.73 1012.67 1012.63 1012.60 1012.45 1012.76 1013.19 1013.58 1013.70 1013.94 1013.75 1014.39 1015.18 1015.61 1016.10 1016.16 1016.53 1017.15 1017.87 1018.33 1018.75 1019.29 1019.89 1020.28 1020.50 1020.71 1021.22 1021.68 1021.89 1022.51 1023.04 1023.55 1024.10 1024.98 1025.55 1026.23
1014.52 1013.75 1013.46 1013.60 1013.72 1013.76 1013.61 1013.23 1013.13 1013.20 1012.56 1012.49 1012.67 1012.65 1013.42 1013.95 1013.87 1014.03 1014.36 1015.04 1015.44 1015.81 1016.35 1016.59 1017.02 1017.73 1018.48 1018.76 1018.98 1019.47 1019.84 1020.24 1020.62 1021.14 1021.70 1022.21 1022.77 1023.26 1023.91 1024.36 1025.02 1025.84 1026.40
1014.58 1014.24 1014.17 1013.62 1013.62 1013.67 1013.34 1013.33 1013.38 1013.56 1013.45 1012.72 1012.47 1012.86 1013.09 1013.33 1013.87 1014.03 1014.51 1014.77 1015.06 1015.71 1016.40 1016.60 1016.79 1017.50 1018.23 1018.89 1019.44 1019.66 1019.97 1020.24 1020.71 1021.56 1022.00 1022.22 1022.75 1023.47 1024.11 1024.90 1025.20 1025.78 1026.48
1014.20 1014.16 1014.38 1014.02 1013.46 1013.64 1013.64 1013.71 1013.89 1014.05 1014.07 1013.89 1013.22 1013.12 1013.12 1013.49 1014.24 1014.49 1014.85 1014.75 1015.24 1015.95 1016.69 1017.29 1017.39 1017.77 1018.26 1018.89 1019.57 1019.97 1020.43 1020.64 1021.00 1021.72 1022.23 1022.64 1023.14 1023.69 1024.38 1024.97 1025.46 1026.01 1026.46
1014.33 1014.34 1014.11 1014.68 1013.64 1013.79 1014.24 1014.63 1014.85 1015.10 1015.18 1015.40 1014.97 1014.03 1013.74 1014.21 1014.65 1015.05 1015.23 1014.98 1015.98 1016.69 1017.21 1017.91 1018.62 1019.05 1019.14 1019.42 1019.94 1020.44 1020.97 1021.39 1021.77 1022.24 1022.73 1022.97 1023.35 1023.81 1024.48 1024.96 1025.41 1025.96 1026.36
1014.67 1014.89 1014.57 1014.66 1014.08 1014.28 1014.69 1014.82 1015.52 1016.02 1016.20 1016.74 1016.46 1015.53 1015.57 1015.99 1016.13 1016.15 1015.80 1016.38 1017.47 1018.21 1018.71 1019.22 1019.47 1019.97 1020.28 1020.45 1020.83 1021.13 1021.47 1021.93 1022.21 1022.70 1023.03 1023.33 1023.67 1024.16 1024.58 1024.93 1025.42 1025.89 1026.25
1015.21 1015.13 1015.07 1015.19 1015.07 1015.10 1015.53 1015.90 1016.32 1016.61 1017.19 1017.62 1017.52 1017.27 1017.33 1017.44 1017.60 1017.91 1018.02 1018.29 1019.04 1019.60 1020.00 1020.46 1020.69 1020.89 1021.14 1021.34 1021.66 1021.90 1022.29 1022.52 1022.75 1023.15 1023.42 1023.68 1024.07 1024.46 1024.97 1025.24 1025.55 1025.92 1026.25
1015.62 1015.75 1015.84 1016.09 1016.32 1016.45 1016.57 1016.96 1017.42 1017.83 1018.59 1018.77 1018.42 1018.10 1018.54 1018.77 1019.39 1019.72 1019.93 1020.40 1020.90 1021.09 1021.16 1021.42 1021.58 1021.88 1022.09 1022.28 1022.42 1022.62 1022.79 1022.96 1023.20 1023.49 1023.78 1024.02 1024.38 1025.08 1024.83 1025.04 1025.37 1025.67 1026.02
1016.38 1016.67 1016.78 1017.13 1017.27 1017.59 1018.01 1018.44 1018.84 1019.22 1019.52 1019.69 1019.90 1019.83 1019.95 1020.30 1020.72 1021.13 1021.47 1021.65 1021.90 1022.05 1022.00 1022.26 1022.60 1022.85 1022.97 1023.00 1022.95 1023.13 1023.28 1023.42 1023.58 1023.76 1023.93 1024.09 1024.32 1024.57 1024.82 1025.14 1025.38 1025.56 1025.93
1017.78 1017.64 1017.58 1017.94 1018.42 1018.85 1019.35 1019.69 1019.87 1020.13 1020.46 1020.79 1021.22 1021.51 1021.74 1021.93 1022.10 1022.34 1022.57 1022.63 1022.94 1022.93 1022.71 1022.76 1022.95 1023.37 1023.32 1023.24 1023.19 1023.34 1023.37 1023.34 1023.43 1023.68 1023.87 1024.07 1024.30 1024.52 1024.73 1024.90 1025.22 1025.43 1025.48
1018.72 1018.77 1018.78 1019.21 1019.66 1020.03 1020.40 1020.74 1020.96 1021.24 1021.50 1021.87 1022.39 1022.75 1022.76 1022.80 1022.86 1022.93 1023.08 1023.27 1023.16 1023.34 1023.30 1023.22 1023.25 1023.32 1023.34 1023.25 1023.19 1023.17 1023.12 1022.99 1023.04 1023.15 1023.33 1023.88 1024.10 1024.36 1024.62 1024.76 1024.79 1024.99 1025.22
1019.96 1020.20 1020.18 1020.42 1020.77 1021.17 1021.51 1021.61 1021.75 1022.04 1022.46 1022.74 1023.08 1023.08 1022.95 1022.98 1023.09 1023.17 1023.29 1023.59 1023.48 1023.60 1023.52 1023.46 1023.16 1023.03 1023.05 1023.03 1023.00 1022.84 1022.70 1022.51 1022.68 1022.81 1023.18 1023.50 1023.87 1023.92 1024.19 1024.32 1024.38 1024.44 1024.62
1021.46 1021.58 1021.51 1021.56 1021.75 1021.87 1022.11 1022.27 1022.42 1022.76 1023.09 1023.35 1023.32 1023.29 1023.22 1023.08 1023.15 1023.26 1023.34 1023.62 1023.73 1023.53 1023.42 1023.19 1022.79 1022.64 1022.58 1022.59 1022.50 1022.37 1022.29 1022.15 1022.20 1022.28 1022.75 1023.24 1023.49 1023.46 1023.65 1023.78 1023.86 1023.94 1024.07
Thickness
5645 5642 5640 5640 5640 5637 5635 5631 5625 5617 5610 5603 5597 5592 5586 5582 5579 5574 5570 5566 5560 5554 5550 5543 5538 5527 5523 5513 5507 5499 5489 5479 5470 5459 5458 5447 5438 5431 5422 5413 5405 5397 5388
5632 5632 5633 5631 5627 5625 5624 5621 5615 5610 5602 5596 5588 5582 5578 5573 5570 5568 5564 5559 5553 5546 5541 5535 5531 5522 5514 5507 5496 5490 5481 5470 5461 5453 5442 5434 5426 5419 5412 5401 5392 5382 5375
5623 5622 5620 5619 5617 5616 5613 5609 5604 5597 5591 5582 5576 5571 5569 5566 5561 5558 5555 5549 5543 5538 5532 5527 5522 5514 5506 5498 5490 5479 5469 5462 5452 5444 5430 5422 5414 5407 5398 5389 5381 5370 5364
5611 5610 5610 5609 5608 5605 5600 5597 5592 5585 5580 5573 5565 5560 5556 5553 5549 5546 5543 5538 5532 5526 5521 5515 5507 5502 5494 5484 5474 5466 5457 5446 5436 5430 5420 5410 5402 5392 5384 5375 5365 5359 5352
5594 5594 5597 5597 5593 5588 5584 5582 5577 5571 5566 5560 5555 5549 5544 5539 5535 5530 5527 5525 5520 5513 5507 5502 5496 5487 5479 5470 5462 5452 5440 5428 5423 5416 5405 5395 5386 5378 5372 5363 5355 5346 5338
5580 5581 5581 5578 5576 5574 5573 5570 5565 5559 5552 5546 5541 5536 5531 5528 5524 5520 5514 5510 5506 5501 5495 5488 5483 5475 5467 5459 5447 5439 5432 5421 5410 5399 5389 5381 5373 5366 5360 5351 5341 5331 5324
5560 5562 5562 5561 5560 5559 5557 5555 5553 5548 5541 5535 5530 5525 5521 5516 5512 5508 5503 5497 5493 5488 5482 5475 5468 5462 5452 5442 5432 5424 5416 5410 5405 5393 5380 5371 5362 5354 5346 5335 5326 5320 5313
5541 5543 5543 5544 5546 5545 5541 5538 5534 5531 5528 5523 5518 5513 5509 5505 5501 5496 5491 5484 5480 5475 5469 5463 5455 5447 5437 5427 5417 5408 5399 5392 5386 5376 5366 5353 5346 5339 5330 5320 5311 5304 5297
5526 5527 5526 5525 5527 5526 5526 5524 5520 5515 5509 5505 5501 5497 5495 5490 5487 5484 5476 5469 5465 5459 5453 5446 5439 5432 5422 5413 5403 5394 5383 5373 5364 5357 5345 5336 5330 5321 5313 5303 5293 5284 5278
5499 5504 5507 5506 5504 5504 5507 5502 5498 5498 5500 5494 5487 5481 5477 5473 5470 5466 5463 5453 5447 5441 5435 5428 5424 5417 5409 5401 5389 5380 5367 5358 5349 5340 5331 5324 5314 5306 5299 5291 5282 5271 5263
5474 5481 5485 5485 5482 5481 5482 5481 5480 5477 5476 5474 5468 5465 5462 5458 5455 5449 5446 5435 5430 5422 5416 5408 5403 5397 5392 5382 5371 5363 5353 5344 5335 5325 5315 5307 5296 5289 5283 5277 5269 5262 5250
5456 5457 5462 5464 5463 5462 5463 5465 5461 5455 5454 5449 5448 5443 5439 5437 5436 5433 5430 5422 5414 5407 5401 5394 5384 5377 5371 5362 5355 5343 5337 5325 5314 5309 5300 5291 5284 5277 5271 5263 5255 5249 5240
5435 5437 5437 5440 5441 5441 5441 5445 5444 5437 5437 5430 5422 5420 5418 5416 5415 5413 5409 5401 5395 5389 5383 5377 5367 5360 5351 5343 5334 5329 5317 5308 5301 5291 5286 5281 5274 5266 5258 5249 5239 5230 5222
5414 5420 5420 5418 5413 5414 5416 5419 5419 5419 5417 5415 5411 5405 5400 5400 5397 5398 5390 5381 5375 5367 5364 5357 5349 5340 5334 5326 5316 5306 5297 5291 5287 5281 5275 5270 5261 5254 5245 5236 5225 5216 5204
5391 5399 5402 5398 5394 5393 5394 5394 5393 5392 5398 5396 5393 5392 5386 5380 5379 5377 5372 5363 5357 5351 5342 5336 5330 5323 5314 5307 5301 5291 5284 5277 5273 5267 5262 5254 5245 5237 5227 5219 5209 5197 5187
5377 5378 5378 5381 5378 5376 5379 5377 5376 5374 5374 5380 5380 5375 5370 5368 5361 5357 5350 5346 5341 5333 5324 5321 5316 5308 5300 5290 5282 5277 5271 5267 5260 5248 5242 5237 5229 5219 5209 5197 5190 5181 5170
5362 5361 5357 5358 5361 5359 5359 5358 5354 5351 5351 5352 5357 5357 5355 5349 5340 5336 5330 5330 5323 5315 5306 5300 5298 5293 5286 5278 5270 5263 5255 5250 5243 5233 5225 5218 5210 5201 5191 5182 5173 5163 5151
5337 5338 5339 5334 5342 5340 5334 5330 5326 5323 5322 5319 5321 5326 5329 5324 5318 5312 5309 5310 5300 5291 5288 5282 5274 5268 5264 5259 5251 5244 5235 5228 5222 5214 5207 5201 5194 5185 5175 5166 5157 5145 5134
5313 5311 5313 5313 5317 5316 5312 5311 5303 5297 5294 5289 5289 5295 5295 5291 5288 5287 5289 5283 5273 5266 5260 5254 5249 5242 5237 5232 5227 5221 5215 5209 5203 5197 5190 5184 5176 5166 5153 5146 5138 5128 5116
5291 5291 5292 5291 5291 5292 5288 5285 5281 5278 5272 5268 5267 5267 5265 5264 5260 5256 5255 5252 5245 5240 5236 5230 5224 5219 5214 5211 5205 5201 5194 5189 5183 5176 5170 5163 5153 5143 5133 5124 5115 5105 5094
5274 5272 5271 5268 5267 5266 5264 5262 5257 5253 5246 5244 5246 5248 5244 5239 5233 5230 5228 5224 5218 5216 5213 5209 5205 5200 5196 5191 5186 5181 5176 5171 5163 5155 5147 5139 5129 5118 5113 5106 5094 5083 5073
5252 5249 5248 5246 5245 5242 5239 5236 5233 5229 5226 5225 5222 5223 5222 5218 5214 5209 5204 5200 5196 5196 5194 5190 5184 5180 5176 5172 5167 5160 5153 5147 5140 5133 5125 5117 5109 5099 5090 5080 5070 5060 5048
5229 5230 5232 5229 5225 5221 5217 5214 5214 5212 5209 5206 5202 5198 5193 5190 5187 5184 5181 5180 5178 5177 5175 5172 5167 5162 5157 5153 5148 5142 5134 5127 5121 5113 5102 5094 5084 5075 5065 5056 5046 5036 5029
5211 5212 5213 5210 5207 5204 5201 5198 5196 5194 5191 5184 5177 5174 5173 5171 5169 5167 5165 5164 5162 5158 5154 5151 5148 5142 5137 5132 5126 5119 5113 5107 5098 5090 5080 5069 5058 5048 5037 5029 5024 5017 5010
5193 5192 5193 5192 5190 5187 5184 5182 5179 5174 5169 5167 5162 5161 5159 5157 5155 5152 5151 5147 5143 5138 5134 5130 5128 5123 5117 5110 5103 5097 5090 5082 5073 5063 5053 5043 5032 5023 5015 5009 5004 5000 4994
5174 5174 5175 5174 5172 5170 5167 5165 5162 5158 5153 5150 5148 5146 5145 5144 5141 5137 5135 5130 5124 5119 5115 5111 5107 5101 5094 5087 5080 5073 5064 5054 5045 5035 5027 5018 5010 5003 4997 4992 4989 4986 4982